Stations météo

réclame
Mon MeteoGroup
Elsenborn, Belgique (6496): Température de l'air & dewpoint: 16.01.2018 21:00:00 - 22.01.2018 21:00:00 (CET)Elsenborn, Belgique (6496): Vitesse du vent & gusts: 16.01.2018 21:00:00 - 22.01.2018 21:00:00 (CET)Elsenborn, Belgique (6496): Direction du vent: 16.01.2018 21:00:00 - 22.01.2018 21:00:00 (CET)Elsenborn, Belgique (6496): reduced air pressure: 16.01.2018 21:00:00 - 22.01.2018 21:00:00 (CET)Elsenborn, Belgique (6496): visibility: 16.01.2018 21:00:00 - 22.01.2018 21:00:00 (CET)
Date & Time tt [°C] td [°C] ff [km/h] ff [knt] fx [km/h] fx [knt] dd ppp [hPa] vv [km]
22.01.2018 21:00:00 3,2 2,1 11 6 29 16 WNW 1017,7 12
22.01.2018 20:00:00 3,3 2,2 14 8 25 14 NW 1016,8 8
22.01.2018 19:00:00 3,2 2,4 11 6 - - WNW 1015,7 11
22.01.2018 18:00:00 3,4 2,5 11 6 25 14 NW 1014,5 12
22.01.2018 17:00:00 3,7 2,9 16 9 22 12 NW 1012,5 10
22.01.2018 16:00:00 3,6 2,9 11 6 - - NW 1011,2 11
22.01.2018 15:00:00 4,0 3,0 11 6 18 10 NNW 1010,1 12
22.01.2018 14:00:00 4,0 3,0 7 4 14 8 NW 1009,2 12
22.01.2018 13:00:00 4,0 3,5 7 4 - - NW 1009,1 9
22.01.2018 12:00:00 3,5 3,1 11 6 25 14 NW 1009,2 10
22.01.2018 11:00:00 3,5 3,4 7 4 18 10 WNW 1008,7 8
22.01.2018 10:00:00 3,8 3,8 7 4 - - WSW 1008,3 0,1
22.01.2018 09:00:00 3,0 3,0 7 4 14 8 WSW 1008,2 0,2
22.01.2018 08:00:00 2,5 2,5 7 4 18 10 WSW 1008,2 0,5
22.01.2018 07:00:00 0,8 0,8 7 4 - - S 1008,3 6
22.01.2018 06:00:00 0,4 0,3 4 2 11 6 N 1008,3 1,7
22.01.2018 05:00:00 0,2 0,1 7 4 11 6 WSW 1008,7 2,6
22.01.2018 04:00:00 -0,1 -0,1 4 2 - - - 1008,7 1,5
22.01.2018 03:00:00 -0,4 -0,4 7 4 18 10 SSW 1009,7 2,2
22.01.2018 02:00:00 -0,3 -0,5 11 6 25 14 SSW 1009,8 4,9
22.01.2018 01:00:00 -0,4 -0,6 7 4 - - SSW 1010,6 2,1
22.01.2018 00:00:00 -0,7 -0,9 11 6 25 14 S 1011,8 1,9
21.01.2018 23:00:00 -0,9 -1,0 11 6 29 16 S 1013,0 1,3
21.01.2018 22:00:00 -1,2 -1,7 14 8 - - S 1014,2 1,5
21.01.2018 21:00:00 -0,9 -1,5 14 8 29 16 S 1015,5 5
21.01.2018 20:00:00 -0,7 -1,3 14 8 32 18 S 1015,8 10
21.01.2018 19:00:00 -1,0 -1,4 7 4 - - S 1016,8 9
21.01.2018 18:00:00 -0,9 -1,2 11 6 18 10 S 1017,6 7
21.01.2018 17:00:00 -0,8 -1,2 7 4 14 8 S 1018,2 7
21.01.2018 16:00:00 -0,5 -1,2 4 2 - - N 1018,2 10
21.01.2018 15:00:00 -0,2 -1,5 4 2 18 10 N 1018,2 16
21.01.2018 14:00:00 0,3 -1,2 7 4 14 8 SW 1018,1 13
21.01.2018 13:00:00 0,0 -0,8 7 4 - - W 1018,1 9
21.01.2018 12:00:00 0,2 -1,5 7 4 18 10 W 1018,0 13
21.01.2018 11:00:00 -0,6 -1,6 7 4 18 10 W 1017,7 5
21.01.2018 10:00:00 -1,0 -1,5 7 4 - - WNW 1017,0 4,8
21.01.2018 09:00:00 -1,2 -1,7 11 6 25 14 NW 1016,0 4,9
21.01.2018 08:00:00 -1,2 -1,5 11 6 22 12 NW 1014,7 4,8
21.01.2018 07:00:00 -1,0 -1,3 11 6 - - NW 1013,7 4,6
21.01.2018 06:00:00 -1,1 -1,3 14 8 36 19 NNW 1012,7 4,6
21.01.2018 05:00:00 -1,0 -1,0 22 12 32 18 NNW 1011,5 3,7
21.01.2018 04:00:00 -1,0 -0,9 18 10 - - NW 1010,2 4,2
21.01.2018 03:00:00 -1,2 -1,2 14 8 32 18 NW 1009,0 0,2
21.01.2018 02:00:00 -1,4 -1,3 18 10 29 16 NW 1007,6 0,3
21.01.2018 01:00:00 -1,3 -1,2 11 6 - - NNW 1006,2 0,1
21.01.2018 00:00:00 -1,2 -1,2 11 6 22 12 NNW 1004,6 0,1
20.01.2018 23:00:00 -0,8 -0,8 11 6 18 10 NNW 1003,2 2,5
20.01.2018 22:00:00 -0,5 -0,7 4 2 - - N 1002,1 3,1
20.01.2018 21:00:00 -0,5 -0,5 4 2 7 4 N 1001,2 1,6
20.01.2018 20:00:00 -0,5 -0,5 4 2 7 4 N 1000,5 1,2
20.01.2018 19:00:00 -0,5 -0,5 4 2 - - N 999,9 1,9
20.01.2018 18:00:00 -0,4 -0,5 4 2 11 6 N 999,4 2,9
20.01.2018 17:00:00 -0,2 -0,6 4 2 11 6 N 999,4 3,1
20.01.2018 16:00:00 -0,1 -0,4 4 2 - - N 1000,2 0,8
20.01.2018 15:00:00 -0,1 -0,4 7 4 22 12 S 1000,8 1,0
20.01.2018 14:00:00 -0,2 -0,5 11 6 25 14 S 1001,7 1,1
20.01.2018 13:00:00 -0,1 -0,5 11 6 - - S 1003,6 1,1
20.01.2018 12:00:00 -0,2 -0,4 14 8 25 14 S 1005,2 1,0
20.01.2018 11:00:00 -0,2 -0,5 11 6 22 12 S 1006,5 2,4
20.01.2018 10:00:00 -0,2 -0,3 11 6 - - SSW 1007,7 4,5
20.01.2018 09:00:00 -0,2 -0,7 11 6 29 16 SSW 1008,3 16
20.01.2018 08:00:00 -0,3 -0,8 11 6 29 16 SW 1008,8 18
20.01.2018 07:00:00 -0,2 -1,0 18 10 - - SW 1009,5 19
20.01.2018 06:00:00 -0,3 -0,7 18 10 32 18 WSW 1009,8 15
20.01.2018 05:00:00 -0,5 -0,7 14 8 29 16 WSW 1010,5 15
20.01.2018 04:00:00 -0,5 -0,9 14 8 - - WSW 1011,2 18
20.01.2018 03:00:00 -0,5 -0,6 14 8 32 18 WSW 1011,6 15
20.01.2018 02:00:00 -0,7 -0,7 14 8 29 16 WSW 1011,7 12
20.01.2018 01:00:00 -0,5 -0,9 14 8 - - WSW 1012,0 20
20.01.2018 00:00:00 -0,6 -0,9 14 8 29 16 WSW 1012,1 20
19.01.2018 23:00:00 -0,6 -1,0 14 8 29 16 WSW 1012,0 18
19.01.2018 22:00:00 -0,4 -0,9 14 8 - - WSW 1011,8 16
19.01.2018 21:00:00 -0,3 -0,9 14 8 29 16 WSW 1011,7 20
19.01.2018 20:00:00 -0,3 -0,9 11 6 22 12 WSW 1011,5 20
19.01.2018 19:00:00 -0,3 -1,0 11 6 - - WSW 1011,5 20
19.01.2018 18:00:00 -0,4 -1,2 11 6 22 12 WSW 1011,0 20
19.01.2018 17:00:00 -0,2 -0,9 11 6 22 12 WSW 1010,8 20
19.01.2018 16:00:00 -0,1 -0,9 11 6 - - WSW 1011,2 20
19.01.2018 15:00:00 0,0 -1,0 11 6 29 16 WSW 1011,2 20
19.01.2018 14:00:00 -0,1 -1,0 11 6 25 14 WSW 1011,5 20
19.01.2018 13:00:00 -0,1 -1,3 14 8 - - WSW 1011,6 18
19.01.2018 12:00:00 -0,5 -0,7 11 6 25 14 WSW 1011,7 20
19.01.2018 11:00:00 -0,6 -1,0 11 6 25 14 W 1011,7 16
19.01.2018 10:00:00 -0,7 -0,9 15 8 - - W 1011,2 10
19.01.2018 09:00:00 -0,8 -1,2 18 10 36 19 W 1010,6 18
19.01.2018 08:00:00 -0,7 -1,0 22 12 50 27 W 1009,5 9
19.01.2018 07:00:00 -0,5 -0,7 24 13 - - W 1008,3 2,7
19.01.2018 06:00:00 -0,5 -0,6 18 10 43 23 W 1007,7 4,0
19.01.2018 05:00:00 -0,3 -0,6 18 10 40 21 WNW 1007,2 0,9
19.01.2018 04:00:00 -0,1 -0,1 18 10 - - W 1006,6 1,9
19.01.2018 03:00:00 0,1 -0,1 18 10 40 21 W 1006,2 18
19.01.2018 02:00:00 -0,1 -0,1 15 8 29 16 W 1005,8 10
19.01.2018 01:00:00 -0,2 -0,2 13 7 - - WNW 1005,5 1,7
19.01.2018 00:00:00 -0,1 -0,1 11 6 40 21 WNW 1004,8 2,8
18.01.2018 23:00:00 0,3 0,2 7 4 22 12 WSW 1003,7 8
18.01.2018 22:00:00 0,2 0,1 13 7 - - SW 1004,0 3,1
18.01.2018 21:00:00 1,7 0,5 13 7 18 10 SW 1003,8 10
18.01.2018 20:00:00 1,7 0,0 8 4 22 12 W 1004,2 10
18.01.2018 19:00:00 1,7 -0,7 11 6 - - W 1004,0 20
18.01.2018 18:00:00 2,0 -1,0 13 7 25 14 W 1004,0 10
18.01.2018 17:00:00 2,5 -1,0 14 8 40 21 WNW 1003,6 20
18.01.2018 16:00:00 3,0 -1,3 22 12 - - W 1003,1 20
18.01.2018 15:00:00 3,2 -0,9 25 14 58 31 WNW 1002,5 20
18.01.2018 14:00:00 3,6 -1,7 29 16 65 35 WNW 1001,7 20
18.01.2018 13:00:00 3,6 -1,2 37 20 - - WNW 1000,7 10
18.01.2018 12:00:00 5,0 -0,5 36 19 79 43 W 998,8 15
18.01.2018 11:00:00 6,0 1,8 43 23 83 45 W 996,7 19
18.01.2018 10:00:00 5,5 3,5 40 21 - - W 995,6 15
18.01.2018 09:00:00 5,1 4,0 40 21 72 39 WSW 995,3 7
18.01.2018 08:00:00 3,2 2,9 31 17 61 33 SW 996,1 10
18.01.2018 07:00:00 1,5 1,2 26 14 - - SW 997,8 6
18.01.2018 06:00:00 0,4 0,1 29 16 58 31 SW 999,8 3,6
18.01.2018 05:00:00 0,0 0,0 29 16 50 27 SW 1001,7 1,5
18.01.2018 04:00:00 0,4 0,1 21 11 - - SSW 1004,0 2,3
18.01.2018 03:00:00 0,5 0,2 18 10 32 18 SW 1006,5 12
18.01.2018 02:00:00 0,6 0,2 21 11 40 21 WSW 1008,1 5
18.01.2018 01:00:00 0,4 0,0 18 10 - - WSW 1009,6 14
18.01.2018 00:00:00 0,3 -0,6 21 11 36 19 W 1010,1 10
17.01.2018 23:00:00 0,6 -0,8 18 10 36 19 W 1010,6 15
17.01.2018 22:00:00 0,5 -1,1 14 8 - - W 1010,5 14
17.01.2018 21:00:00 0,4 -1,4 14 8 32 18 W 1010,6 15
17.01.2018 20:00:00 0,5 -1,7 18 10 40 21 W 1010,2 10
17.01.2018 19:00:00 0,6 -2,2 21 11 - - W 1010,3 10
17.01.2018 18:00:00 0,5 -3,1 22 12 47 25 W 1009,5 18
17.01.2018 17:00:00 0,6 -2,7 25 14 54 29 W 1008,7 12
17.01.2018 16:00:00 0,4 -1,9 26 14 - - W 1007,5 10
17.01.2018 15:00:00 -0,7 -1,0 25 14 43 23 W 1006,7 0,9
17.01.2018 14:00:00 -0,1 -2,0 18 10 43 23 W 1006,0 15
17.01.2018 13:00:00 -0,6 -2,1 29 16 - - W 1005,5 3,8
17.01.2018 12:00:00 -0,9 -2,4 25 14 50 27 W 1004,7 3,7
17.01.2018 11:00:00 -1,1 -2,6 25 14 50 27 W 1004,1 4,5
17.01.2018 10:00:00 -1,4 -2,9 22 12 - - W 1003,2 6
17.01.2018 09:00:00 -1,3 -3,1 25 14 50 27 W 1001,8 2,7
17.01.2018 08:00:00 -1,2 -3,2 25 14 58 31 W 1000,3 19
17.01.2018 07:00:00 -0,9 -2,9 29 16 - - W 998,8 6
17.01.2018 06:00:00 -0,6 -2,3 29 16 54 29 WNW 997,6 20
17.01.2018 05:00:00 -0,6 -1,9 28 15 58 31 W 996,7 10
17.01.2018 04:00:00 -0,7 -1,8 29 16 - - W 996,7 5
17.01.2018 03:00:00 -0,6 -1,3 26 14 47 25 W 996,0 10
17.01.2018 02:00:00 -0,4 -0,5 22 12 40 21 W 995,7 18
17.01.2018 01:00:00 -0,5 -0,6 22 12 - - W 995,6 2,6
17.01.2018 00:00:00 0,0 -0,2 16 9 36 19 WSW 995,9 3,8
16.01.2018 23:00:00 1,1 -0,6 21 11 36 19 WSW 996,3 10
16.01.2018 22:00:00 1,2 -1,0 18 10 - - WSW 997,0 10
16.01.2018 21:00:00 1,2 -0,6 22 12 40 21 W 997,0 10

tt = Température de l'air
td = dewpoint
ff = Vitesse du vent
fx = gusts
dd = Direction du vent
ppp = reduced air pressure
vv = visibility

stations d'obs. à proximité